Crane Lake, MN

10:59 PM CDT on April 20, 2018 (GMT -0500)
Crane Lake

Weather History for KCDD - February, 2014

Change the Weather History Date:

Monday, February 17, 2014

  Actual Average Record
Temperature  
Mean Temperature 14 °F -  
Max Temperature 21 °F 24 °F 55 °F (2017)
Min Temperature 8 °F 2 °F -25 °F (2015)
Degree Days  
Heating Degree Days 50    
Moisture  
Dew Point 14 °F    
Average Humidity 87    
Maximum Humidity 100    
Minimum Humidity 73    
Precipitation  
Precipitation 0.07 in - - ()
Sea Level Pressure  
Sea Level Pressure 29.73 in    
Wind  
Wind Speed 4 mph (SSE)    
Max Wind Speed 9 mph    
Max Gust Speed -    
Visibility 5 miles    
Events Snow    
Averages and records for this station are not official NWS values.
T = Trace of Precipitation, MM = Missing Value Source: NWS Daily Summary

Daily Weather History Graph

Daily Weather History Graph

Search for Another Location

Airport or City:

Astronomy

Feb. 17, 2014 Rise Set
Actual Time 7:13 AM CST 5:35 PM CST
Civil Twilight 6:41 AM CST 6:07 PM CST
Nautical Twilight 6:04 AM CST 6:43 PM CST
Astronomical Twilight 5:28 AM CST 7:19 PM CST
Moon 8:47 PM CST (2/17) 7:59 AM CST (2/17)
Length of Visible Light 11h 25m
Length of Day
10h 21m
Waning Gibbous, 93% of the Moon is Illuminated
Feb 17
Waning Gibbous
Feb 22
Last Quarter
Mar 1
New
Mar 8
First Quarter
Mar 16
Full

Hourly Weather History & Observations

Time (CST) Temp. Windchill Dew Point Humidity Pressure Visibility Wind Dir Wind Speed Gust Speed Precip Events Conditions
12:12 AM 8.6 °F - 3.2 °F 79% 30.01 in 10.0 mi Calm Calm - N/A   Overcast
12:32 AM 8.6 °F 2.0 °F 3.2 °F 79% 30.00 in 10.0 mi ESE 3.5 mph - N/A   Mostly Cloudy
12:52 AM 10.4 °F - 3.2 °F 73% 30.00 in 10.0 mi Calm Calm - N/A   Mostly Cloudy
1:12 AM 10.4 °F - 5.0 °F 79% 29.98 in 10.0 mi Calm Calm - N/A   Mostly Cloudy
1:32 AM 10.4 °F 0.8 °F 5.0 °F 79% 29.97 in 10.0 mi SE 5.8 mph - N/A   Overcast
1:52 AM 10.4 °F 2.2 °F 6.8 °F 85% 29.95 in 5.0 mi ESE 4.6 mph - N/A Snow Light Snow
2:12 AM 12.2 °F 6.1 °F 6.8 °F 79% 29.94 in 0.8 mi SSE 3.5 mph - N/A Snow Light Snow
2:32 AM 12.2 °F 6.1 °F 6.8 °F 79% 29.92 in 1.2 mi SE 3.5 mph - N/A Snow Light Snow
2:52 AM 12.2 °F 2.9 °F 8.6 °F 85% 29.90 in 0.5 mi SE 5.8 mph - N/A Snow Snow
3:12 AM 12.2 °F 6.1 °F 8.6 °F 85% 29.87 in 0.8 mi SE 3.5 mph - N/A Snow Light Snow
3:32 AM 12.2 °F 4.3 °F 10.4 °F 92% 29.86 in 0.5 mi SE 4.6 mph - N/A Snow Light Snow
3:52 AM 14.0 °F 2.9 °F 10.4 °F 86% 29.84 in 0.8 mi SE 8.1 mph - N/A Snow Light Snow
4:12 AM 14.0 °F 6.5 °F 10.4 °F 86% 29.81 in 0.2 mi SE 4.6 mph - N/A Snow Snow
4:32 AM 15.8 °F 8.6 °F 12.2 °F 86% 29.82 in 1.2 mi SSE 4.6 mph - N/A Snow Light Snow
4:52 AM 15.8 °F 8.6 °F 12.2 °F 86% 29.81 in 0.8 mi SSE 4.6 mph - N/A Snow Light Snow
5:12 AM 15.8 °F 6.1 °F 12.2 °F 86% 29.81 in 1.5 mi SSE 6.9 mph - N/A Snow Light Snow
5:32 AM 15.8 °F 4.2 °F 12.2 °F 86% 29.81 in 1.0 mi SSE 9.2 mph - N/A Snow Light Snow
5:52 AM 15.8 °F - 12.2 °F 86% 29.80 in 1.2 mi Calm Calm - N/A Snow Light Snow
6:12 AM 15.8 °F 6.1 °F 12.2 °F 86% 29.79 in 5.0 mi SSE 6.9 mph - N/A Snow Light Snow
6:32 AM 15.8 °F 7.2 °F 12.2 °F 86% 29.79 in 0.5 mi SSE 5.8 mph - N/A Snow Snow
6:52 AM 15.8 °F 7.2 °F 12.2 °F 86% 29.78 in 7.0 mi SSE 5.8 mph - N/A Snow Light Snow
7:12 AM 15.8 °F 7.2 °F 12.2 °F 86% 29.78 in 5.0 mi SE 5.8 mph - N/A Snow Light Snow
7:32 AM 15.8 °F 7.2 °F 12.2 °F 86% 29.78 in 4.0 mi SSE 5.8 mph - N/A Snow Light Snow
7:52 AM 15.8 °F 7.2 °F 12.2 °F 86% 29.78 in 7.0 mi SE 5.8 mph - N/A Snow Light Snow
8:12 AM 15.8 °F 6.1 °F 12.2 °F 86% 29.77 in 3.0 mi SSE 6.9 mph - N/A Snow Light Snow
8:32 AM 15.8 °F 7.2 °F 12.2 °F 86% 29.76 in 3.0 mi SE 5.8 mph - N/A Snow Light Snow
8:52 AM 15.8 °F 10.2 °F 12.2 °F 86% 29.75 in 2.0 mi SE 3.5 mph - N/A Snow Light Snow
9:12 AM 15.8 °F 10.2 °F 12.2 °F 86% 29.74 in 0.8 mi SE 3.5 mph - N/A Snow Light Snow
9:32 AM 17.6 °F 10.7 °F 14.0 °F 86% 29.73 in 0.8 mi SSE 4.6 mph - N/A Snow Light Snow
9:52 AM 17.6 °F 8.2 °F 14.0 °F 86% 29.72 in 1.0 mi South 6.9 mph - N/A Snow Light Snow
10:12 AM 17.6 °F 9.3 °F 15.8 °F 93% 29.72 in 0.5 mi SSE 5.8 mph - N/A Snow Light Snow
10:32 AM 17.6 °F 10.7 °F 15.8 °F 93% 29.72 in 0.2 mi SE 4.6 mph - N/A Snow Snow
10:52 AM 19.4 °F 14.3 °F 15.8 °F 86% 29.72 in 0.5 mi SSE 3.5 mph - 0.01 in Snow Light Snow
11:12 AM 19.4 °F 10.4 °F 15.8 °F 86% 29.72 in 0.8 mi SSE 6.9 mph - N/A Snow Light Snow
11:32 AM 19.4 °F 12.8 °F 17.6 °F 93% 29.72 in 1.0 mi SSE 4.6 mph - 0.01 in Snow Light Snow
11:52 AM 19.4 °F 11.5 °F 15.8 °F 86% 29.71 in 0.8 mi South 5.8 mph - 0.02 in Snow Light Snow
12:57 PM 19.4 °F 10.4 °F 15.8 °F 86% 29.68 in 10.0 mi SSE 6.9 mph - N/A Snow Light Snow
12:58 PM 19.4 °F 10.4 °F 15.8 °F 86% 29.68 in 10.0 mi SSE 6.9 mph - N/A Snow Light Snow
1:12 PM 19.4 °F 9.5 °F 15.8 °F 86% 29.68 in 5.0 mi South 8.1 mph - 0.01 in Snow Light Snow
1:32 PM 19.4 °F 11.5 °F 15.8 °F 86% 29.67 in 3.0 mi SSE 5.8 mph - 0.01 in Snow Light Snow
1:52 PM 21.2 °F 13.6 °F 15.8 °F 80% 29.67 in 1.0 mi SSE 5.8 mph - 0.02 in Snow Light Snow
2:12 PM 21.2 °F 13.6 °F 15.8 °F 80% 29.66 in 1.2 mi SSE 5.8 mph - N/A Snow Light Snow
2:32 PM 21.2 °F 13.6 °F 15.8 °F 80% 29.66 in 1.0 mi South 5.8 mph - 0.01 in Snow Light Snow
2:52 PM 21.2 °F - 17.6 °F 86% 29.66 in 0.8 mi Calm Calm - 0.01 in Snow Light Snow
3:12 PM 21.2 °F 14.9 °F 17.6 °F 86% 29.65 in 1.5 mi SSE 4.6 mph - N/A Snow Light Snow
3:32 PM 21.2 °F 14.9 °F 17.6 °F 86% 29.65 in 2.5 mi SSE 4.6 mph - N/A Snow Light Snow
3:52 PM 21.2 °F 14.9 °F 17.6 °F 86% 29.64 in 5.0 mi SSE 4.6 mph - 0.01 in Snow Light Snow
4:12 PM 21.2 °F 14.9 °F 17.6 °F 86% 29.65 in 7.0 mi South 4.6 mph - N/A Snow Light Snow
4:32 PM 21.2 °F 14.9 °F 17.6 °F 86% 29.66 in 10.0 mi South 4.6 mph - N/A   Scattered Clouds
4:52 PM 21.2 °F 13.6 °F 17.6 °F 86% 29.67 in 10.0 mi South 5.8 mph - N/A   Mostly Cloudy
5:12 PM 21.2 °F 13.6 °F 15.8 °F 80% 29.67 in 10.0 mi South 5.8 mph - N/A   Overcast
5:32 PM 19.4 °F 12.8 °F 17.6 °F 93% 29.66 in 10.0 mi South 4.6 mph - N/A   Overcast
5:52 PM 19.4 °F 14.3 °F 15.8 °F 86% 29.65 in 10.0 mi South 3.5 mph - N/A   Overcast
6:12 PM 19.4 °F 14.3 °F 15.8 °F 86% 29.65 in 10.0 mi South 3.5 mph - N/A   Overcast
6:32 PM 19.4 °F 14.3 °F 15.8 °F 86% 29.65 in 10.0 mi South 3.5 mph - N/A   Overcast
6:52 PM 19.4 °F 14.3 °F 17.6 °F 93% 29.65 in 10.0 mi South 3.5 mph - N/A   Overcast
7:12 PM 19.4 °F 14.3 °F 17.6 °F 93% 29.66 in 10.0 mi SSE 3.5 mph - N/A   Overcast
7:32 PM 19.4 °F 12.8 °F 17.6 °F 93% 29.65 in 10.0 mi South 4.6 mph - N/A   Overcast
7:52 PM 19.4 °F 14.3 °F 17.6 °F 93% 29.65 in 10.0 mi South 3.5 mph - N/A   Overcast
8:12 PM 19.4 °F 14.3 °F 17.6 °F 93% 29.64 in 10.0 mi South 3.5 mph - N/A   Overcast
8:32 PM 19.4 °F 12.8 °F 17.6 °F 93% 29.64 in 10.0 mi South 4.6 mph - N/A   Overcast
8:52 PM 19.4 °F 11.5 °F 17.6 °F 93% 29.62 in 10.0 mi South 5.8 mph - N/A   Overcast
9:12 PM 19.4 °F - 17.6 °F 93% 29.62 in 7.0 mi Calm Calm - N/A   Overcast
9:32 PM 19.4 °F - 17.6 °F 93% 29.63 in 7.0 mi Calm Calm - N/A   Overcast
9:52 PM 19.4 °F - 17.6 °F 93% 29.63 in 7.0 mi Calm Calm - N/A   Overcast
10:12 PM 19.4 °F - 17.6 °F 93% 29.62 in 7.0 mi Calm Calm - N/A   Mostly Cloudy
10:32 PM 17.6 °F - 14.0 °F 86% 29.61 in 5.0 mi Calm Calm - N/A   Scattered Clouds
10:52 PM 15.8 °F - 12.2 °F 86% 29.61 in 5.0 mi Calm Calm - N/A   Clear
11:12 PM 14.0 °F - 10.4 °F 86% 29.60 in 5.0 mi Calm Calm - N/A   Clear
11:32 PM 15.8 °F 8.6 °F 12.2 °F 86% 29.59 in 5.0 mi South 4.6 mph - N/A   Clear
11:52 PM 15.8 °F 10.2 °F 15.8 °F 100% 29.60 in 5.0 mi South 3.5 mph - N/A   Clear